When you browse on this site, cookies collect data to enhance your experience and personalize the content and advertising you see.
Visit our Privacy Policy to learn more. By continuing to use the site, you agree to this use of cookies and data.
  • In United Kingdom
  • List of Countries
  • For 7 days
  • Water Temperature
  • Weather Map
  • Weather Widgets
  • user-avatar
    Login

    Hourly Weather Bakowiec

    Today, 7 June, Sunday

    Time Temperature Precipitation Wind Pressure Humidity
    00:00 +16°C° 0.1 mm 2 mps 746 mmHg 89%
    01:00 +16°C° 0.1 mm 2 mps 746 mmHg 91%
    02:00 +16°C° 0 mm 2 mps 746 mmHg 92%
    03:00 +16°C° 0 mm 3 mps 746 mmHg 93%
    04:00 +16°C° 0 mm 3 mps 745 mmHg 94%
    05:00 +17°C° 0 mm 3 mps 745 mmHg 91%
    06:00 +19°C° 0 mm 3 mps 745 mmHg 89%
    07:00 +20°C° 0 mm 3 mps 745 mmHg 86%
    08:00 +22°C° 0.3 mm 4 mps 745 mmHg 80%
    09:00 +23°C° 0.3 mm 4 mps 745 mmHg 74%
    10:00 +26°C° 0.3 mm 4 mps 745 mmHg 69%
    11:00 +27°C° 0.1 mm 4 mps 745 mmHg 65%
    12:00 +27°C° 0.1 mm 4 mps 745 mmHg 62%
    13:00 +28°C° 0.1 mm 4 mps 745 mmHg 59%
    14:00 +28°C° 0.2 mm 3 mps 744 mmHg 60%
    15:00 +28°C° 0.2 mm 3 mps 744 mmHg 61%
    16:00 +29°C° 0.2 mm 3 mps 744 mmHg 62%
    17:00 +26°C° 1.2 mm 3 mps 744 mmHg 69%
    18:00 +24°C° 1.2 mm 2 mps 744 mmHg 76%
    19:00 +21°C° 1.2 mm 2 mps 744 mmHg 83%
    20:00 +20°C° 1.7 mm 2 mps 744 mmHg 85%
    21:00 +20°C° 1.7 mm 2 mps 744 mmHg 87%
    22:00 +20°C° 1.7 mm 1 mps 744 mmHg 89%
    23:00 +18°C° 0 mm 2 mps 744 mmHg 90%

    Tomorrow, 8 June, Monday

    Time Temperature Precipitation Wind Pressure Humidity
    00:00 +18°C° 0 mm 2 mps 744 mmHg 90%
    01:00 +17°C° 0 mm 2 mps 744 mmHg 91%
    02:00 +17°C° 0 mm 2 mps 744 mmHg 91%
    03:00 +17°C° 0 mm 2 mps 744 mmHg 92%
    04:00 +17°C° 0 mm 3 mps 744 mmHg 92%
    05:00 +18°C° 0 mm 3 mps 744 mmHg 88%
    06:00 +19°C° 0 mm 4 mps 744 mmHg 83%
    07:00 +21°C° 0 mm 5 mps 744 mmHg 79%
    08:00 +22°C° 0 mm 5 mps 744 mmHg 73%
    09:00 +25°C° 0 mm 5 mps 745 mmHg 68%
    10:00 +26°C° 0 mm 5 mps 745 mmHg 62%
    11:00 +26°C° 0.1 mm 5 mps 745 mmHg 62%
    12:00 +27°C° 0.1 mm 4 mps 745 mmHg 61%
    13:00 +27°C° 0.1 mm 4 mps 745 mmHg 60%
    14:00 +26°C° 0.9 mm 3 mps 745 mmHg 66%
    15:00 +25°C° 0.9 mm 3 mps 745 mmHg 72%
    16:00 +24°C° 0.9 mm 3 mps 745 mmHg 77%
    17:00 +22°C° 0.6 mm 3 mps 745 mmHg 82%
    18:00 +20°C° 0.6 mm 3 mps 746 mmHg 87%
    19:00 +19°C° 0.6 mm 3 mps 746 mmHg 91%
    20:00 +18°C° 0.2 mm 4 mps 746 mmHg 93%
    21:00 +17°C° 0.2 mm 4 mps 746 mmHg 94%
    22:00 +16°C° 0.2 mm 5 mps 747 mmHg 96%
    23:00 +15°C° 0 mm 5 mps 747 mmHg 95%

    Day after tomorrow, 9 June, Tuesday

    Time Temperature Precipitation Wind Pressure Humidity
    00:00 +15°C° 0 mm 4 mps 747 mmHg 95%
    01:00 +14°C° 0 mm 4 mps 748 mmHg 95%
    02:00 +14°C° 0 mm 4 mps 748 mmHg 94%
    03:00 +14°C° 0 mm 4 mps 748 mmHg 94%
    04:00 +14°C° 0 mm 3 mps 748 mmHg 93%
    05:00 +14°C° 0 mm 3 mps 748 mmHg 93%
    06:00 +14°C° 0 mm 3 mps 748 mmHg 92%
    07:00 +16°C° 0 mm 3 mps 749 mmHg 91%
    08:00 +16°C° 0 mm 3 mps 749 mmHg 90%
    09:00 +17°C° 0 mm 3 mps 749 mmHg 89%
    10:00 +17°C° 0 mm 3 mps 749 mmHg 87%
    11:00 +18°C° 0 mm 3 mps 749 mmHg 84%
    12:00 +19°C° 0 mm 3 mps 749 mmHg 81%
    13:00 +19°C° 0 mm 3 mps 749 mmHg 78%
    14:00 +19°C° 0 mm 3 mps 749 mmHg 78%
    15:00 +19°C° 0 mm 3 mps 749 mmHg 79%
    16:00 +20°C° 0 mm 3 mps 749 mmHg 79%
    17:00 +19°C° 0 mm 3 mps 749 mmHg 81%
    18:00 +18°C° 0 mm 3 mps 749 mmHg 84%
    19:00 +18°C° 0 mm 2 mps 749 mmHg 86%
    20:00 +18°C° 0 mm 2 mps 749 mmHg 87%
    21:00 +17°C° 0 mm 2 mps 749 mmHg 87%
    22:00 +17°C° 0 mm 2 mps 749 mmHg 87%
    23:00 +17°C° 0 mm 2 mps 749 mmHg 88%

    10 June, Wednesday

    Time Temperature Precipitation Wind Pressure Humidity
    00:00 +17°C° 0 mm 2 mps 749 mmHg 89%
    01:00 +16°C° 0 mm 2 mps 748 mmHg 90%
    02:00 +16°C° 0 mm 2 mps 748 mmHg 90%
    03:00 +16°C° 0 mm 2 mps 748 mmHg 90%
    04:00 +16°C° 0 mm 2 mps 748 mmHg 90%
    05:00 +16°C° 0 mm 2 mps 748 mmHg 90%
    06:00 +17°C° 0 mm 2 mps 748 mmHg 90%
    07:00 +17°C° 0 mm 2 mps 748 mmHg 90%
    08:00 +18°C° 0 mm 2 mps 748 mmHg 87%
    09:00 +19°C° 0 mm 2 mps 748 mmHg 84%
    10:00 +20°C° 0 mm 2 mps 748 mmHg 81%
    11:00 +21°C° 0 mm 2 mps 748 mmHg 80%
    12:00 +21°C° 0 mm 2 mps 747 mmHg 79%
    13:00 +23°C° 0 mm 2 mps 747 mmHg 78%
    14:00 +23°C° 0 mm 2 mps 747 mmHg 79%
    15:00 +23°C° 0 mm 2 mps 747 mmHg 80%
    16:00 +23°C° 0 mm 2 mps 746 mmHg 81%
    17:00 +21°C° 0 mm 2 mps 746 mmHg 83%
    18:00 +21°C° 0 mm 2 mps 746 mmHg 86%
    19:00 +20°C° 0 mm 2 mps 746 mmHg 88%
    20:00 +20°C° 0 mm 2 mps 746 mmHg 88%
    21:00 +19°C° 0 mm 2 mps 746 mmHg 89%
    22:00 +20°C° 0 mm 1 mps 746 mmHg 89%
    23:00 +19°C° 0 mm 1 mps 746 mmHg 90%

    11 June, Thursday

    Time Temperature Precipitation Wind Pressure Humidity
    00:00 +19°C° 0 mm 1 mps 745 mmHg 91%
    01:00 +18°C° 0 mm 1 mps 745 mmHg 93%
    02:00 +18°C° 0.1 mm 1 mps 745 mmHg 93%
    03:00 +18°C° 0.1 mm 1 mps 745 mmHg 94%
    04:00 +18°C° 0.1 mm 1 mps 745 mmHg 94%
    05:00 +19°C° 0.3 mm 1 mps 745 mmHg 93%
    06:00 +19°C° 0.3 mm 1 mps 745 mmHg 93%
    07:00 +20°C° 0.3 mm 1 mps 745 mmHg 92%
    08:00 +21°C° 0 mm 1 mps 745 mmHg 85%
    09:00 +23°C° 0 mm 1 mps 745 mmHg 79%
    10:00 +25°C° 0 mm 1 mps 745 mmHg 72%
    11:00 +25°C° 0.9 mm 1 mps 745 mmHg 71%
    12:00 +26°C° 0.9 mm 1 mps 744 mmHg 71%
    13:00 +26°C° 0.9 mm 2 mps 744 mmHg 70%
    14:00 +26°C° 0.4 mm 1 mps 744 mmHg 68%
    15:00 +26°C° 0.4 mm 1 mps 744 mmHg 66%
    16:00 +27°C° 0.4 mm 1 mps 743 mmHg 64%
    17:00 +26°C° 0.3 mm 1 mps 743 mmHg 69%
    18:00 +24°C° 0.3 mm 1 mps 743 mmHg 73%
    19:00 +23°C° 0.3 mm 1 mps 743 mmHg 78%
    20:00 +23°C° 0.1 mm 1 mps 743 mmHg 80%
    21:00 +22°C° 0.1 mm 1 mps 743 mmHg 83%
    22:00 +21°C° 0.1 mm 1 mps 744 mmHg 85%
    23:00 +21°C° 0 mm 1 mps 743 mmHg 87%

    12 June, Friday

    Time Temperature Precipitation Wind Pressure Humidity
    00:00 +20°C° 0 mm 1 mps 743 mmHg 89%
    01:00 +20°C° 0 mm 1 mps 743 mmHg 91%
    02:00 +18°C° 0 mm 2 mps 743 mmHg 91%
    03:00 +18°C° 0 mm 2 mps 743 mmHg 92%
    04:00 +18°C° 0 mm 2 mps 743 mmHg 92%
    05:00 +20°C° 0 mm 2 mps 743 mmHg 87%
    06:00 +21°C° 0 mm 2 mps 744 mmHg 82%
    07:00 +23°C° 0 mm 2 mps 744 mmHg 77%
    08:00 +25°C° 0 mm 2 mps 744 mmHg 71%
    09:00 +26°C° 0 mm 2 mps 744 mmHg 66%
    10:00 +28°C° 0 mm 2 mps 744 mmHg 60%
    11:00 +28°C° 0.2 mm 3 mps 744 mmHg 60%
    12:00 +29°C° 0.2 mm 3 mps 743 mmHg 60%
    13:00 +29°C° 0.2 mm 4 mps 743 mmHg 61%
    14:00 +29°C° 0.3 mm 4 mps 743 mmHg 62%
    15:00 +29°C° 0.3 mm 4 mps 743 mmHg 63%
    16:00 +29°C° 0.3 mm 4 mps 743 mmHg 65%
    17:00 +27°C° 0.2 mm 4 mps 743 mmHg 71%
    18:00 +26°C° 0.2 mm 3 mps 743 mmHg 78%
    19:00 +25°C° 0.2 mm 3 mps 743 mmHg 84%
    20:00 +24°C° 0 mm 3 mps 744 mmHg 85%
    21:00 +22°C° 0 mm 3 mps 744 mmHg 85%
    22:00 +21°C° 0 mm 2 mps 744 mmHg 86%
    23:00 +20°C° 0 mm 2 mps 744 mmHg 86%
    Show more